Voltar ao catálogo

STARLINK-1504

AtivoComunicaçõesVLEO
NORAD 45746·PAYLOAD·🇺🇸 United States

Lançado Jun 13, 2020 de Cape Canaveral Space Force Station

Loading…

Próximas Passagens (próximas 24 horas)

TLE

AtualizadoSource: CelesTrak SupGP

Época: Sep 15, 2026, 01:47 UTC

1 45746C 20038S   26258.07479167  .00069766  00000+0  65854-3 0  2585
2 45746  53.0163 299.7039 0003034  55.7251  35.6104 15.66334626    12

Acompanhe STARLINK-1504 em tempo real com AllMySat

Download on the App Store